Regional Weather Roundup
Issued by NWS

Home | Current Version | Previous Version | Text Only | Print | Product List | Glossary On
Versions: 1 2 3 4 5 6 7 8 9 10 11 12 13 14 15 16 17 18 19 20 21 22 23 24 25 26 27 28 29 30 31 32 33 34 35 36 37 38 39 40 41 42 43 44 45 46 47 48 49 50
000
ASUS44 KLIX 301211
RWRLA
LOUISIANA WEATHER ROUNDUP
NATIONAL WEATHER SERVICE NEW ORLEANS LA
700 AM CDT TUE JUN 30 2015

NOTE: "FAIR" INDICATES FEW OR NO CLOUDS BELOW 12,000 FEET WITH NO
      SIGNIFICANT WEATHER AND/OR OBSTRUCTIONS TO VISIBILITY.
      SKY/WX - SKY CONDITION AND SIGNIFICANT WEATHER.
      TMP - AIR TEMPERATURE.    DP   - DEWPOINT TEMPERATURE.
      RH  - RELATIVE HUMIDITY.  PRES - PRESSURE.
      HX  - HEAT INDEX.         WCI  - WIND CHILL INDEX.

*  THESE STATIONS ARE NOT NWS OR FAA STATIONS AND ARE NOT UNDER
   NWS QUALITY CONTROL.

LAZ040-048-061>063-065-066-069-301300-
SOUTHEAST LOUISIANA

CITY           SKY/WX    TMP DP  RH WIND       PRES   REMARKS
N.O. AUDUBON     N/A     81  79  93 MISG        N/A
6HR MIN TEMP:  78; 6HR MAX TEMP:  81;

N.O. INTL ARPT PTSUNNY   80  75  84 SW7       30.06R
6HR MIN TEMP:  78; 6HR MAX TEMP:  80; 6HR PCP: TRACE;

N.O. LAKEFRONT PTSUNNY   82  75  79 W10       30.06R
6HR MIN TEMP:  82; 6HR MAX TEMP:  84;

N.O. DOWNTOWN* FAIR      82  73  74 SW5       30.07R
6HR MIN TEMP:  81; 6HR MAX TEMP:  82;

RESERVE*       FAIR      79  74  86 SW3       30.06R
6HR MIN TEMP:  76; 6HR MAX TEMP:  79;

SLIDELL        MOSUNNY   74  71  91 CALM      30.06R
6HR MIN TEMP:  73; 6HR MAX TEMP:  82;

BATON ROUGE    PTCLDY    77  73  87 SW7       30.04S
6HR MIN TEMP:  70; 6HR MAX TEMP:  77;

BOOTHVILLE     MOSUNNY   82  76  81 SW9       30.07R
6HR MIN TEMP:  82; 6HR MAX TEMP:  83;

BELLE CHASSE   PTSUNNY   78  75  90 SW6       30.06R
6HR MIN TEMP:  76; 6HR MAX TEMP:  79;

BOGALUSA*        N/A     72  69  88 CALM      30.08R
6HR MIN TEMP:  71; 6HR MAX TEMP:  78;

GALLIANO*      PTSUNNY   81  77  89 SW3       30.07R
6HR MIN TEMP:  75; 6HR MAX TEMP:  82;

NEW ROADS*     FAIR     N/A N/A N/A CALM      30.04S
GONZALES*      FAIR      75  75  99 SW3       30.04S
6HR MIN TEMP:  72; 6HR MAX TEMP:  75;

HAMMOND*       MOSUNNY   73  66  78 CALM      30.08S
HOUMA*         CLEAR     75  75 100 CALM      30.06R
PORT FOURCHON* SUNNY     82  75  78 SW7       30.08S

$$

LAZ041-044-053-054-301300-
SOUTHWEST LOUISIANA

CITY           SKY/WX    TMP DP  RH WIND       PRES   REMARKS
LAKE CHARLES   PTCLDY    78  76  93 NE5       30.03S FOG
6HR MIN TEMP:  76; 6HR MAX TEMP:  81; 6HR PCP: TRACE;

LAFAYETTE      PTCLDY    78  75  90 SW6       30.04S
6HR MIN TEMP:  75; 6HR MAX TEMP:  80;

PATTERSON      MOCLDY    75  73  94 CALM      30.07R
6HR MIN TEMP:  73; 6HR MAX TEMP:  79;

SALT POINT       N/A     83  77  82 VRB6      30.04R
6HR MIN TEMP:  83; 6HR MAX TEMP:  84;

NEW IBERIA     PTCLDY    77  75  93 S5        30.05S
6HR MIN TEMP:  75; 6HR MAX TEMP:  80;

CHENAULT AIRPK MOCLDY    77  75  94 CALM      30.04R

$$

LAZ027-028-301300-
CENTRAL LOUISIANA

CITY           SKY/WX    TMP DP  RH WIND       PRES   REMARKS
FORT POLK      PTCLDY    77  75  93 SW5       30.03R
6HR MIN TEMP:  77; 6HR MAX TEMP:  78;

ALEXANDRIA INT PTCLDY    77  75  93 NW3       30.02R FOG
6HR MIN TEMP:  73; 6HR MAX TEMP:  78; 6HR PCP:  0.07;

ALEXANDRIA     CLEAR     77  74  90 W5        30.03R FOG
6HR MIN TEMP:  73; 6HR MAX TEMP:  77; 6HR PCP: TRACE;


$$

LAZ001-002-301300-
NORTHWEST LOUISIANA

CITY           SKY/WX    TMP DP  RH WIND       PRES   REMARKS
SHREVEPORT     MOCLDY    76  72  87 SW7       30.01R
6HR MIN TEMP:  74; 6HR MAX TEMP:  77;

BARKSDALE AFB  PTCLDY    76  72  87 SW8       30.01R
6HR MIN TEMP:  74; 6HR MAX TEMP:  76;

DTN SHREVEPORT PTCLDY    76  71  85 SW10      30.01R
6HR MIN TEMP:  75; 6HR MAX TEMP:  77;


$$

LAZ014-016-301300-
NORTHEAST LOUISIANA

CITY           SKY/WX    TMP DP  RH WIND       PRES   REMARKS
MONROE         PTCLDY    75  74  96 S6        30.00S
6HR MIN TEMP:  75; 6HR MAX TEMP:  77;

TALLULAH       CLOUDY    73  69  87 SW3       30.02R
6HR MIN TEMP:  71; 6HR MAX TEMP:  74;


$$




USA.gov is the U.S. government's official web portal to all federal, state and local government web resources and services.